VR2MW-X Weather Reports


time (UTC)temp
C
wind
direction
speed
KPH
gust
KPH
rain 1hr
cm
rain 24hr
cm
rain mn
cm
humidity
%
barometer
mb
20260504100247 22 0.0 0.0 0.00 0.00 0.00 89 1014.1
20260504081051 25 0.0 0.0 0.00 0.00 0.00 71 1014.6
20260504050738 27 0.0 0.0 0.00 0.00 0.00 61 1015.6
20260504045728 26 0.0 0.0 0.00 0.00 0.00 62 1015.6
20260504044717 26 0.0 0.0 0.00 0.00 0.00 61 1015.7
20260504043706 26 0.0 0.0 0.00 0.00 0.00 60 1015.7
20260504042656 25 0.0 0.0 0.00 0.00 0.00 65 1016.0
20260504041646 25 0.0 0.0 0.00 0.00 0.00 65 1016.0
20260504040635 25 0.0 0.0 0.00 0.00 0.00 67 1016.1
20260504035624 -17 0.0 0.0 0.00 0.00 0.00
20260504034614 25 0.0 0.0 0.00 0.00 0.00 67 1016.2
20260504033604 25 0.0 0.0 0.00 0.00 0.00 63 1016.0
20260504032553 25 0.0 0.0 0.00 0.00 0.00 64 1016.1
20260504031543 25 0.0 0.0 0.00 0.00 0.00 63 1016.2
20260504030532 25 0.0 0.0 0.00 0.00 0.00 67 1016.5
20260504025521 25 0.0 0.0 0.00 0.00 0.00 65 1016.6
20260504024509 25 0.0 0.0 0.00 0.00 0.00 64 1016.2
20260504023458 23 0.0 0.0 0.00 0.00 0.00 67 1016.5
20260504022448 23 0.0 0.0 0.00 0.00 0.00 69 1016.3
20260504021438 23 0.0 0.0 0.00 0.00 0.00 67 1016.3
20260504020427 23 0.0 0.0 0.00 0.00 0.00 67 1016.2
20260504015417 22 0.0 0.0 0.00 0.00 0.00 80 1016.5
20260504014406 23 0.0 0.0 0.00 0.00 0.00 75 1016.7
20260504013356 22 0.0 0.0 0.00 0.00 0.00 68 1016.3
20260504012345 22 0.0 0.0 0.00 0.00 0.00 71 1016.1
20260504011334 22 0.0 0.0 0.00 0.00 0.00 77 1015.7
20260504010324 22 0.0 0.0 0.00 0.00 0.00 83 1015.7
20260504005314 22 0.0 0.0 0.00 0.00 0.00 85 1015.7
20260504004303 22 0.0 0.0 0.00 0.00 0.00 96 1016.1
20260504003252 21 0.0 0.0 0.00 0.00 0.00 97 1016.0
20260504002242 21 0.0 0.0 0.00 0.00 0.00 98 1015.7
20260504001231 21 0.0 0.0 0.00 0.00 0.00 98 1015.5
20260504000219 21 0.0 0.0 0.00 0.00 0.00 98 1015.6
20260503235206 21 0.0 0.0 0.00 0.00 0.00 98 1015.5
20260503234154 21 0.0 0.0 0.00 0.00 0.00 98 1015.2
20260503233141 21 0.0 0.0 0.00 0.00 0.00 98 1015.0
20260503232129 20 0.0 0.0 0.00 0.00 0.00 98 1015.0
20260503231117 20 0.0 0.0 0.00 0.00 0.00 98 1015.2
20260503225050 20 0.0 0.0 0.00 0.00 0.00 98 1014.7
20260503224037 20 0.0 0.0 0.00 0.00 0.00 98 1014.6
20260503223027 20 0.0 0.0 0.00 0.00 0.00 98 1014.2
20260503222013 20 0.0 0.0 0.00 0.00 0.00 98 1014.2
20260503221001 20 0.0 0.0 0.00 0.00 0.00 98 1014.0
20260503215949 20 0.0 0.0 0.00 0.00 0.00 98 1013.7
20260503214939 20 0.0 0.0 0.00 0.00 0.00 97 1013.7
20260503213928 20 0.0 0.0 0.00 0.00 0.00 97 1013.6
20260503212918 20 0.0 0.0 0.00 0.00 0.00 97 1013.2
20260503211906 20 0.0 0.0 0.00 0.00 0.00 98 1013.1
20260503210855 20 0.0 0.0 0.00 0.00 0.00 98 1012.7
20260503205842 20 0.0 0.0 0.00 0.00 0.00 98 1012.8
20260503204830 20 0.0 0.0 0.00 0.00 0.00 98 1012.8
20260503203818 20 0.0 0.0 0.00 0.00 0.00 98 1012.7
20260503202806 21 0.0 0.0 0.00 0.00 0.00 98 1012.6
20260503201756 21 0.0 0.0 0.00 0.00 0.00 98 1012.6
20260503200745 21 0.0 0.0 0.00 0.00 0.00 98 1012.7
20260503195734 21 0.0 0.0 0.00 0.00 0.00 98 1012.7
20260503194722 -17 0.0 0.0 0.00 0.00 0.00
20260503193711 21 0.0 0.0 0.00 0.00 0.00 98 1012.8
20260503192700 21 0.0 0.0 0.00 0.00 0.00 98 1012.8
20260503191646 21 0.0 0.0 0.00 0.00 0.00 98 1013.2
20260503190636 21 0.0 0.0 0.00 0.00 0.00 98 1013.2
20260503185625 21 0.0 0.0 0.00 0.00 0.00 98 1013.2
20260503184612 21 0.0 0.0 0.00 0.00 0.00 98 1013.0
20260503183601 21 0.0 0.0 0.00 0.00 0.00 98 1013.2
20260503182547 21 0.0 0.0 0.00 0.00 0.00 98 1013.3
20260503181535 21 0.0 0.0 0.00 0.00 0.00 98 1013.7
20260503180522 21 0.0 0.0 0.00 0.00 0.00 97 1013.7
20260503175512 21 0.0 0.0 0.00 0.00 0.00 97 1014.0
20260503174458 21 0.0 0.0 0.00 0.00 0.00 98 1014.1
20260503173446 21 0.0 0.0 0.00 0.00 0.00 98 1014.2
20260503172435 21 0.0 0.0 0.00 0.00 0.00 97 1014.2
20260503171424 21 0.0 0.0 0.00 0.00 0.00 98 1014.5
20260503170412 21 0.0 0.0 0.00 0.00 0.00 97 1014.6
20260503150150 22 0.0 0.0 0.00 0.00 0.00 98 1014.2
20260503130946 -17 0.0 0.0 0.00 0.00 0.00
20260503110730 22 0.0 0.0 0.00 0.00 0.00 98 1011.7